Theta_e
335 336 341 336 334 325 319 318 302 309 306 296 294 299 294 303 302 300 299 302 300 305 306 306 306 309 306 305 304 312 312 307 310 302 305 323 338 340 341 341 342 343 342 344 345 346 346 347 347 348 348 348 348 347 346 349 348 348 348 349 348 348 347 347 347 347 347 346 345 342 342 342 341 340 341 341 340 339 339 338 339 339 340 342 344 345 346 344 341 340 340 339 339 337 336 336 339
329 332 328 326 323 327 315 317 306 300 302 293 294 297 298 300 302 299 299 304 304 304 305 304 308 309 309 308 305 309 313 317 320 321 326 336 339 338 341 342 342 341 343 343 345 346 347 346 347 348 349 349 348 348 349 349 348 348 348 348 348 347 347 347 346 346 346 345 344 342 342 342 340 340 341 340 340 339 339 338 339 340 345 345 344 346 346 345 344 343 341 338 338 337 336 338 338
326 326 324 324 320 319 314 314 301 299 297 290 294 296 300 298 300 304 305 305 305 306 307 308 309 308 308 308 306 306 307 321 323 325 325 336 332 334 341 342 343 343 343 343 344 346 346 346 346 349 348 349 348 349 349 348 348 348 349 348 348 348 347 346 346 346 346 345 343 342 341 341 340 340 340 340 339 338 338 338 338 341 343 345 345 344 344 342 341 341 341 340 339 337 336 337 338
328 326 323 324 317 318 309 307 303 296 296 292 291 299 299 300 303 304 305 307 306 306 307 306 306 311 306 308 306 310 315 317 326 327 325 329 330 337 339 341 342 342 343 344 345 346 346 343 345 350 349 349 349 348 348 348 349 348 348 348 348 347 346 346 345 346 346 345 342 341 340 340 340 340 340 339 338 338 338 337 338 339 339 342 343 343 342 342 340 340 340 338 338 337 335 337 337
324 328 323 321 321 314 311 306 299 297 292 295 292 298 300 303 304 304 304 304 306 306 308 308 307 310 312 309 310 308 311 321 323 329 330 333 339 339 339 343 342 341 343 344 345 347 346 343 346 348 349 349 349 348 348 348 348 348 347 347 348 346 346 346 345 345 346 345 342 341 340 339 340 340 339 338 337 337 339 340 340 341 342 343 343 342 342 343 342 339 338 337 337 336 336 337 337
325 323 330 327 314 315 308 300 299 293 296 299 296 297 300 304 304 303 303 305 306 306 306 306 304 307 305 312 315 313 318 313 327 331 332 331 338 340 341 344 340 341 342 343 346 346 346 342 346 347 349 349 349 348 348 348 348 347 347 347 347 347 346 346 346 345 345 344 342 340 340 339 339 339 339 338 337 337 338 339 344 344 344 344 344 344 344 342 341 338 337 337 336 337 337 336 337
324 322 321 322 318 315 305 300 296 295 296 300 298 298 301 304 304 304 303 303 306 305 306 306 307 306 306 310 317 321 326 325 326 331 334 335 338 340 342 341 340 340 342 344 347 347 345 343 348 349 350 349 348 348 347 347 347 347 347 346 346 347 346 346 345 345 345 343 340 340 339 339 339 339 338 337 337 337 337 339 340 341 342 341 341 341 342 341 340 339 337 336 336 337 336 336 336
324 318 318 309 307 305 301 299 296 298 297 300 302 301 303 305 304 304 302 302 300 300 304 306 306 305 303 309 307 319 328 331 332 335 335 335 337 339 340 340 339 339 342 345 347 344 345 342 348 348 348 348 348 347 347 347 347 346 347 346 346 346 346 345 345 345 344 343 339 338 339 340 340 338 337 336 336 336 336 339 339 340 340 340 340 339 341 340 339 338 337 337 337 336 335 335 335
322 317 322 313 303 306 299 296 295 299 298 300 301 305 309 305 304 303 302 303 303 305 303 304 306 302 303 309 311 317 323 329 332 334 334 335 336 338 339 340 339 339 342 346 345 345 344 341 345 348 348 348 348 348 347 347 346 346 346 346 346 346 345 345 345 344 344 343 339 337 338 338 339 339 338 337 336 336 335 336 339 339 339 339 339 339 338 338 338 337 337 336 336 335 335 335 334
317 315 306 307 308 301 299 295 296 298 298 301 301 303 303 304 304 304 303 301 302 304 305 307 305 302 303 305 310 315 318 327 331 332 333 335 337 337 338 341 342 341 341 345 345 344 343 342 339 343 345 348 348 348 347 347 346 346 346 345 346 345 345 345 344 344 344 343 339 337 338 338 338 338 338 337 336 336 335 335 336 337 337 337 337 336 334 334 335 335 334 336 335 334 334 334 334
309 315 316 306 301 297 299 295 296 299 299 300 301 304 304 304 304 303 303 302 303 304 305 305 302 302 303 310 310 319 324 328 329 329 333 334 336 336 336 340 342 342 342 344 345 344 343 341 339 339 342 343 347 348 348 347 346 346 345 345 346 345 344 344 344 343 343 343 340 338 338 338 337 337 337 338 337 336 336 335 335 334 334 334 333 334 332 332 332 333 333 334 334 333 333 333 333
308 306 311 301 297 299 296 296 297 298 300 299 299 303 303 304 305 302 302 301 301 304 304 304 304 306 302 306 309 316 321 325 328 331 333 335 335 337 339 340 344 342 344 344 345 344 343 341 340 337 334 337 342 344 345 346 347 346 347 346 346 345 345 344 344 343 343 343 340 338 338 338 338 337 337 337 337 336 336 335 335 335 334 334 332 332 331 331 332 332 332 333 333 332 332 332 332
313 312 303 299 299 297 298 296 297 297 298 297 299 303 304 303 302 302 302 302 301 300 303 305 308 305 302 305 311 316 317 323 331 332 333 333 335 338 340 341 343 342 344 344 344 344 343 343 342 342 334 331 332 335 338 341 344 347 347 346 346 345 344 344 344 343 343 343 340 337 337 337 337 337 336 336 336 336 335 335 334 334 333 332 332 331 331 331 331 331 332 332 332 332 331 332 331
313 314 309 300 304 299 298 299 298 296 296 299 302 303 304 302 302 304 301 300 301 301 306 307 307 306 303 307 308 309 316 329 331 332 332 334 335 339 339 339 341 342 343 343 341 343 342 342 343 342 337 339 337 332 330 337 341 345 345 345 345 345 344 343 344 343 343 342 340 338 337 337 336 336 336 335 335 335 335 335 334 332 332 332 331 331 331 331 330 330 332 331 331 330 330 330 329
314 312 307 304 298 298 299 296 298 299 295 300 301 302 302 305 304 302 302 300 301 306 307 308 310 304 298 302 304 308 321 329 330 331 332 332 333 337 338 338 339 339 341 342 342 341 341 341 342 342 341 342 342 341 340 331 332 339 343 342 343 343 343 343 343 341 340 340 338 336 333 331 331 332 333 334 334 334 333 332 332 330 330 330 331 331 330 330 330 330 331 330 329 328 328 327 327
316 310 307 301 296 296 300 297 298 296 296 300 301 303 301 302 304 303 302 303 304 310 306 302 307 303 308 318 318 320 327 328 329 331 330 330 331 334 334 336 338 337 339 340 340 341 342 341 341 342 342 342 342 342 341 337 329 331 338 339 340 341 341 340 339 337 335 333 332 330 327 326 325 326 325 327 329 332 330 328 330 328 328 329 330 331 331 330 330 330 329 328 326 325 324 324 324
315 313 302 297 294 296 299 299 297 293 297 300 302 302 299 299 304 303 303 306 303 303 304 306 304 308 306 314 324 325 326 327 327 328 328 327 328 327 330 334 336 335 337 338 338 338 339 341 341 340 341 342 342 341 341 341 333 328 331 332 334 337 337 336 335 328 326 324 325 323 324 327 327 326 325 324 322 325 323 325 328 328 327 328 329 330 330 330 329 328 326 325 323 322 320 321 321
315 304 299 296 295 299 302 299 299 301 299 298 300 301 301 298 301 303 304 303 303 303 303 305 307 307 309 320 325 325 325 326 327 325 324 324 325 327 329 332 333 332 333 334 337 337 337 339 339 339 339 340 341 341 342 341 336 335 340 337 337 334 330 328 331 334 331 330 323 325 327 326 327 327 325 325 322 323 323 323 326 328 327 326 328 329 329 328 327 326 324 323 322 321 318 312 313
307 299 298 294 299 300 301 301 301 299 299 300 301 301 301 301 301 302 299 299 300 300 301 303 303 305 307 314 322 322 322 323 324 324 324 324 324 325 327 328 330 331 331 331 329 336 336 338 338 338 339 339 340 341 342 340 338 339 341 340 339 332 332 334 337 335 336 332 328 330 325 325 327 326 325 324 321 319 321 321 325 325 326 325 326 326 326 326 325 323 322 321 321 321 313 310 310
306 304 297 298 303 300 302 303 301 302 303 301 300 301 301 302 302 303 300 298 300 298 298 299 301 303 304 311 318 320 321 321 323 323 324 324 325 325 326 326 328 328 331 331 328 334 335 334 337 339 339 340 338 340 341 340 338 338 338 340 339 340 337 338 338 338 337 334 331 333 333 329 328 325 322 321 320 320 320 320 321 322 323 322 323 322 324 323 321 321 321 323 317 312 308 307 307
305 300 299 301 299 299 300 302 302 301 302 302 301 301 301 302 303 301 300 297 298 300 302 301 302 304 305 309 316 318 319 320 321 322 323 324 325 326 326 327 327 327 328 330 330 332 333 333 332 335 339 338 338 339 339 338 340 338 337 339 338 339 338 337 338 337 337 337 335 336 335 334 327 324 322 320 319 320 319 318 317 317 316 315 316 313 313 314 314 313 314 310 308 308 306 306 305
306 297 300 301 300 298 301 301 301 300 301 303 300 298 300 303 303 301 300 296 295 303 304 304 304 305 307 307 316 317 319 319 320 320 322 323 323 324 326 327 328 327 327 328 329 330 332 333 333 331 337 337 338 339 338 338 339 338 337 338 338 338 338 336 337 337 336 338 337 336 336 334 327 325 323 321 319 319 318 317 315 314 313 313 312 309 310 311 312 312 310 308 306 305 305 304 304
297 300 300 300 301 300 302 302 300 299 302 301 300 302 302 301 301 301 300 299 301 304 305 305 306 309 309 309 315 314 318 318 319 319 321 321 323 324 325 326 327 326 325 328 330 329 329 331 333 333 332 333 336 338 338 337 337 337 338 338 338 338 338 337 336 336 336 337 337 336 334 334 328 325 324 323 319 318 317 317 315 313 312 310 309 309 311 313 311 308 307 306 306 304 303 303 303
300 297 299 299 301 300 301 299 300 299 300 300 301 302 301 299 298 304 300 301 303 304 306 304 306 309 310 309 313 313 316 317 318 320 322 322 323 324 325 325 327 327 325 326 330 331 329 331 332 333 332 332 333 336 336 336 337 336 336 336 337 335 336 336 336 335 337 337 336 334 333 334 331 325 325 324 320 319 318 317 315 313 311 309 309 312 314 310 309 307 306 306 304 303 302 301 301
297 298 300 300 301 301 300 299 299 300 301 300 301 300 300 301 300 299 299 302 303 304 305 304 304 305 308 309 309 312 314 316 317 318 321 321 322 324 325 325 326 326 325 325 326 326 328 331 331 330 331 332 333 332 331 335 336 335 335 336 336 333 336 336 337 336 336 336 336 335 333 333 333 326 325 326 323 321 320 317 315 313 312 311 312 313 313 310 308 307 306 305 303 301 299 299 299
301 300 300 300 300 301 299 300 301 301 302 302 300 299 301 300 302 299 301 302 303 304 304 304 304 303 303 308 308 309 311 314 316 317 319 320 322 323 323 324 325 325 325 325 326 325 326 328 327 328 330 331 331 332 330 330 330 335 335 336 336 335 336 336 337 336 336 335 335 335 334 334 333 328 326 327 326 324 321 317 316 316 316 315 314 313 311 310 308 307 306 304 302 300 299 298 297
303 300 301 300 299 300 301 301 300 301 302 301 299 299 300 299 299 295 301 302 304 303 304 305 303 302 303 303 308 309 309 311 315 317 318 319 320 321 323 324 324 325 325 325 326 326 324 325 326 328 330 328 330 330 329 330 329 330 335 336 335 335 335 335 333 335 335 335 335 336 335 334 333 331 329 329 328 327 320 317 316 319 320 319 315 311 311 311 309 308 305 303 301 300 299 298 297
303 301 300 299 300 301 300 301 299 300 300 301 301 298 300 299 301 297 302 303 304 303 303 303 303 302 302 303 303 306 307 309 313 315 316 317 318 320 321 324 324 324 325 324 325 325 324 325 325 327 329 329 328 329 328 327 327 327 329 333 335 335 334 334 334 333 332 335 335 335 334 334 331 333 331 329 329 327 322 319 320 320 319 317 314 312 311 310 308 305 304 303 301 299 298 298 297
301 300 296 298 299 298 299 299 300 300 299 300 303 298 296 297 295 300 301 303 303 303 302 302 302 303 302 302 303 303 304 305 310 313 316 318 319 320 321 325 325 324 324 326 325 324 324 324 324 325 326 324 323 324 325 324 325 325 325 327 333 334 334 333 334 335 335 336 336 335 334 334 332 333 331 329 327 327 323 321 319 319 318 315 312 311 308 305 303 302 302 301 300 298 298 297 297
302 301 298 297 296 295 299 301 300 299 300 301 300 288 291 297 300 301 302 302 302 302 300 300 302 302 302 302 302 304 305 306 307 312 314 316 318 320 320 323 325 324 322 323 326 325 325 324 324 325 324 322 322 323 323 322 323 323 323 324 325 333 332 330 331 333 332 334 336 336 335 333 331 331 331 330 328 326 323 321 319 318 316 312 310 308 306 305 303 302 301 299 299 297 296 295 294
296 298 300 294 292 291 299 300 299 297 300 300 301 290 291 297 301 302 303 303 301 299 299 299 301 302 302 303 302 304 306 307 307 310 314 315 317 318 318 319 323 324 321 322 324 324 324 322 324 324 321 320 319 320 320 321 321 323 323 323 325 329 330 329 329 331 331 331 334 335 334 333 331 331 331 330 326 324 321 320 318 317 315 312 309 308 305 303 302 300 299 298 297 296 296 295 294
298 292 289 293 292 295 299 301 299 296 298 300 299 291 292 297 298 302 302 302 302 299 299 299 301 301 303 303 304 303 305 307 308 309 313 314 315 315 316 316 320 323 323 323 323 323 322 320 319 318 316 317 316 317 317 318 319 320 321 321 325 323 326 327 327 329 329 330 329 331 333 333 331 332 331 330 328 324 321 319 318 316 313 311 309 307 305 302 301 301 302 299 297 298 298 294 293
296 292 293 291 292 293 296 297 301 300 298 300 297 290 294 296 298 300 300 301 300 298 299 300 301 302 302 302 303 304 304 304 307 308 310 313 313 314 315 316 318 321 322 321 321 321 319 317 316 316 316 316 316 316 315 315 316 316 318 319 320 320 322 323 324 325 327 328 328 328 329 330 331 332 331 329 327 323 321 318 317 315 312 310 308 306 305 303 302 301 299 299 297 295 294 293 292
291 294 289 296 291 292 290 295 298 301 298 294 296 292 293 296 298 300 300 301 300 299 299 301 301 300 301 301 302 303 304 304 305 307 308 311 312 313 316 315 316 319 320 319 319 319 319 315 315 316 315 315 315 315 315 315 316 315 316 317 314 315 316 318 320 321 321 321 323 326 328 328 329 330 329 328 326 324 320 318 317 314 312 310 307 306 304 303 303 301 298 297 296 294 293 292 291
290 290 289 290 296 293 292 291 295 298 297 294 294 294 294 297 299 299 300 301 300 299 299 300 300 300 300 301 302 303 303 303 305 307 309 309 311 312 314 314 315 316 318 317 317 317 317 314 313 313 314 314 314 315 315 315 314 314 315 316 313 313 312 311 315 317 319 321 320 320 322 325 327 329 327 326 324 321 319 317 315 312 311 309 307 305 304 303 302 300 297 295 295 294 293 292 292
291 294 294 292 290 291 290 294 297 298 294 293 293 292 294 296 298 299 300 300 300 300 300 300 300 300 300 301 301 302 303 304 305 307 309 309 310 311 312 313 314 315 315 316 315 315 315 313 313 312 313 314 314 314 312 310 310 310 310 310 309 310 311 310 312 315 317 318 318 318 318 320 324 328 327 325 323 320 318 316 314 312 310 309 307 304 303 302 300 297 296 295 293 292 293 292 292
293 296 295 291 291 293 295 295 296 297 293 291 293 294 294 295 296 298 298 298 298 297 298 298 299 300 301 300 301 302 302 304 306 308 309 309 310 310 310 311 312 313 313 314 314 314 314 313 312 311 312 313 313 312 311 310 309 307 308 309 306 309 312 311 311 311 313 314 314 316 317 318 317 318 322 324 322 318 318 316 314 312 310 309 307 305 304 302 299 297 295 293 292 290 290 291 291
294 294 293 290 295 291 296 294 296 295 293 290 292 292 293 294 295 297 298 298 297 298 298 298 299 300 301 301 302 302 303 306 309 308 308 308 308 309 309 309 309 310 311 312 313 313 313 313 312 311 312 312 312 312 310 309 309 309 310 309 310 312 310 310 311 310 310 310 312 313 314 316 315 314 313 317 319 318 316 315 314 312 310 309 307 306 304 300 297 295 293 292 292 290 289 290 290
295 292 291 291 291 295 295 294 295 297 294 289 291 290 292 294 295 297 297 298 299 300 300 299 299 298 301 302 302 302 302 304 308 307 308 307 308 308 307 307 309 310 310 311 312 312 312 312 312 311 311 311 311 310 310 309 309 311 311 310 312 308 309 308 310 310 309 308 309 310 311 313 313 313 312 313 315 316 315 315 313 312 311 308 306 303 301 298 296 294 293 292 291 291 290 291 289
293 292 290 288 294 292 288 293 295 295 293 289 290 290 293 296 297 297 298 299 299 300 300 300 300 299 300 302 302 302 302 303 307 307 306 306 307 307 306 306 307 308 308 308 310 311 312 310 311 311 310 310 310 309 309 310 310 311 307 304 308 305 301 301 303 305 306 307 306 306 307 310 310 311 311 312 313 313 314 314 313 312 310 308 306 302 299 297 296 295 296 296 293 288 289 289 291
293 295 292 292 294 293 291 290 293 294 295 295 292 291 291 294 294 295 298 300 299 300 299 300 301 302 302 303 303 304 302 303 304 306 306 305 305 305 305 306 306 307 307 308 309 310 311 310 310 310 310 309 309 308 309 309 308 303 302 302 301 301 300 301 302 301 303 304 304 304 303 305 308 309 309 311 312 312 312 313 312 311 309 308 305 302 299 296 296 296 296 294 292 290 288 289 290
290 294 294 293 294 292 294 296 293 289 288 293 294 281 283 291 294 295 296 298 296 298 298 300 300 300 301 301 302 303 305 304 304 304 306 305 305 305 304 304 305 305 306 308 309 310 309 309 309 309 308 308 308 308 309 308 306 304 303 302 300 298 300 301 302 303 301 302 303 304 302 302 305 306 307 309 309 310 311 311 311 310 308 307 306 303 301 298 296 295 295 294 293 292 290 289 288
289 289 295 297 294 295 294 293 291 283 281 291 294 283 280 287 290 292 293 293 294 296 298 299 300 301 300 302 303 303 304 304 305 305 304 303 304 304 303 304 304 305 306 307 308 309 309 309 309 309 308 307 308 308 308 305 305 305 305 305 303 302 303 304 305 304 303 302 303 302 301 300 301 304 305 307 307 309 310 310 310 310 309 308 305 304 301 298 296 295 295 295 294 293 292 289 289
286 295 297 296 296 294 295 293 292 288 293 294 293 290 282 283 288 293 294 293 294 293 295 298 300 300 301 302 304 303 303 304 305 304 304 303 304 304 303 303 304 305 306 308 308 309 308 308 308 308 307 306 307 307 305 305 305 304 305 305 304 304 305 304 304 303 303 302 301 300 299 299 299 300 301 303 305 307 309 310 310 310 308 307 304 303 301 299 297 297 296 296 296 295 293 292 291
293 295 298 296 296 296 295 292 289 289 285 282 287 291 282 281 288 293 294 291 292 293 294 295 297 297 299 301 304 301 302 303 304 303 303 303 303 303 303 303 304 305 306 307 308 308 308 308 308 308 306 306 306 305 304 304 304 304 305 305 305 306 307 306 304 302 301 300 300 297 297 297 297 297 299 299 301 304 306 308 309 309 308 307 303 304 301 299 297 296 296 296 296 296 295 295 293
295 297 299 298 297 296 294 289 287 285 282 280 285 290 280 283 288 289 291 291 291 292 294 296 297 298 301 302 302 301 301 301 301 302 302 302 302 302 303 304 304 304 306 307 307 307 306 306 306 306 304 304 305 304 303 303 304 304 305 306 306 306 307 306 304 301 298 298 298 296 296 295 295 295 296 297 299 301 304 306 308 308 308 306 303 304 302 299 298 298 297 297 298 297 297 297 295
298 298 296 294 293 290 289 287 285 282 279 282 290 291 286 280 286 288 289 290 293 295 294 298 303 302 303 302 301 301 301 301 302 301 300 300 300 301 302 303 303 304 305 307 306 306 306 306 306 305 304 305 305 303 302 302 303 304 305 307 307 307 306 302 301 299 297 297 298 296 295 295 294 295 294 295 298 299 302 304 306 307 307 305 304 304 302 300 299 299 298 299 299 298 297 298 295
298 293 289 290 288 287 285 284 285 279 278 284 290 291 289 278 282 293 294 296 294 296 295 299 300 301 301 301 300 300 300 301 300 299 299 298 299 299 300 301 302 303 305 306 305 305 305 305 305 305 304 303 302 302 302 301 302 303 305 306 307 308 303 301 301 298 297 297 298 295 295 294 293 294 294 294 295 297 299 301 303 305 306 305 305 305 304 302 301 301 300 299 299 299 298 298 295
296 291 288 282 281 281 279 282 277 278 277 283 283 289 285 285 288 291 293 295 295 296 297 299 299 302 302 301 300 299 300 300 299 299 298 297 297 298 298 300 301 302 304 304 305 305 305 305 305 304 303 302 301 301 301 301 301 303 305 306 307 308 305 302 302 299 297 298 298 296 293 294 293 292 293 293 295 295 297 299 301 303 304 305 305 306 304 303 302 303 301 300 299 299 298 296 294
292 288 283 280 276 276 273 277 280 281 283 283 284 287 283 288 290 293 295 296 295 295 299 299 298 299 302 302 300 300 300 299 300 301 299 298 298 298 298 299 301 302 304 304 304 304 304 305 304 303 303 303 300 300 301 300 301 303 305 305 307 307 304 303 303 301 297 299 299 298 295 295 293 293 293 294 295 296 296 299 300 302 303 303 305 304 304 304 303 302 301 300 299 298 296 295 293
291 293 289 283 280 276 273 276 275 277 281 282 284 281 279 280 285 292 296 296 297 297 299 300 300 301 302 302 300 300 299 299 301 301 301 301 300 299 299 299 300 302 303 304 304 304 303 303 303 302 302 302 300 299 299 299 300 302 304 305 306 305 304 303 303 303 299 298 298 298 296 295 295 295 294 295 296 296 297 298 299 300 300 300 301 301 301 302 302 301 300 299 297 295 294 293 290
290 292 294 286 283 285 278 281 281 279 280 279 280 280 283 286 291 294 295 294 295 296 297 298 298 298 301 301 301 301 300 300 301 301 301 301 301 300 299 299 300 301 303 303 303 304 303 303 303 302 302 302 301 299 298 299 299 301 303 303 305 303 302 302 301 300 299 299 298 297 297 295 296 295 296 295 295 296 296 297 298 299 299 299 299 299 299 299 298 298 295 294 293 294 291 290 288
288 290 284 288 292 290 284 280 282 279 278 277 281 283 287 290 293 294 295 295 295 294 295 295 296 297 298 298 299 299 300 300 300 300 301 301 299 300 300 299 300 301 302 303 304 304 303 303 302 302 301 301 301 299 298 298 298 299 301 302 303 303 301 300 300 299 299 299 299 298 298 297 296 296 296 295 294 295 296 297 297 297 297 298 297 296 296 296 295 293 292 291 291 289 289 288 286
291 283 288 293 294 292 285 278 280 278 276 279 280 280 283 281 281 290 290 291 291 293 294 296 297 295 295 297 299 300 300 299 299 300 299 300 300 300 300 300 301 301 302 303 303 303 303 303 302 302 301 301 301 300 298 298 298 298 299 301 302 302 302 301 300 299 299 298 297 297 297 296 296 296 295 295 294 295 295 294 296 295 295 295 295 293 292 291 291 290 290 289 288 288 287 286 285
292 288 297 289 280 280 283 280 275 273 273 275 279 281 282 284 286 288 288 290 291 293 294 294 295 295 296 297 299 299 300 299 299 299 301 301 300 299 299 299 300 301 302 302 303 303 303 302 302 302 301 302 302 301 299 298 298 298 299 299 300 301 301 301 300 300 299 298 297 295 294 294 294 293 293 293 293 293 292 292 292 291 291 291 291 291 291 290 289 288 287 286 285 285 285 284 283
296 296 292 296 288 282 281 282 281 280 275 274 277 278 279 287 288 288 289 291 292 294 293 294 295 296 297 299 299 299 299 299 300 301 301 301 299 298 299 299 300 301 301 302 302 302 302 302 301 301 300 301 301 301 299 298 298 298 298 298 299 299 299 299 298 298 298 298 296 295 294 292 292 292 292 291 291 291 290 290 290 290 290 289 289 289 289 288 288 287 286 284 283 284 283 282 281
285 285 284 288 285 288 285 285 282 279 275 275 275 276 281 287 291 291 292 293 294 294 294 295 296 296 298 298 300 301 300 300 301 300 300 300 299 297 298 298 298 298 299 300 302 302 301 301 300 300 300 300 301 300 298 298 297 297 296 296 297 297 297 297 297 296 297 297 296 294 293 293 290 289 289 289 289 289 290 289 289 289 289 289 288 288 287 287 287 285 284 283 282 282 282 281 281
290 289 287 289 285 282 279 279 288 283 281 276 277 276 283 292 294 295 292 293 297 299 296 298 298 298 303 302 302 303 301 301 300 300 300 299 297 297 296 296 295 296 298 299 301 300 300 301 301 300 300 300 300 299 298 297 297 297 296 295 294 294 295 295 295 293 294 294 293 291 290 289 289 288 289 289 289 289 289 288 288 288 288 287 287 287 286 286 286 284 282 283 282 281 280 279 279
Wind_Speed
8 6 6 6 6 6 3 3 1 2 2 4 4 0 2 2 3 3 5 4 3 2 3 3 4 5 4 2 2 11 8 6 3 0 1 3 4 5 5 10 9 9 9 9 8 6 6 6 7 9 9 9 9 10 9 9 10 11 11 12 11 11 13 13 14 15 15 16 15 15 15 15 15 14 14 14 15 15 15 14 13 13 15 16 18 19 20 22 21 21 21 22 21 21 21 21 18
6 7 5 4 4 0 2 5 1 3 2 6 5 5 2 3 1 4 4 8 3 2 2 4 4 3 2 3 1 4 11 10 6 5 6 7 6 5 4 8 9 10 8 9 8 7 7 5 7 9 10 11 10 9 9 9 10 11 11 11 11 11 12 13 14 15 15 15 15 14 15 15 14 14 14 14 15 15 15 15 13 15 17 17 18 20 20 23 21 21 21 21 21 21 20 18 17
6 7 6 5 4 2 4 2 2 1 3 6 3 3 3 3 3 10 10 8 7 4 4 4 4 2 0 3 3 7 3 8 10 8 5 8 9 6 3 4 7 8 9 8 8 8 7 6 7 9 11 10 10 10 9 9 10 10 11 11 11 12 12 13 14 14 14 14 14 14 14 14 14 14 14 14 14 15 15 14 14 15 16 18 19 19 21 21 21 21 21 21 21 20 18 17 16
5 7 5 2 2 3 2 2 3 4 3 5 4 1 3 4 9 9 7 5 5 4 2 2 1 0 3 5 4 4 5 4 7 8 6 8 4 8 4 4 7 6 6 6 7 7 7 7 7 9 10 11 10 10 10 10 10 11 11 11 11 11 12 13 14 14 15 14 14 14 15 14 14 14 14 14 14 15 15 14 16 14 15 18 19 19 21 20 20 20 20 20 19 19 18 16 16
3 5 3 2 1 2 1 2 2 3 5 3 4 3 3 8 8 7 5 4 2 2 1 1 2 1 2 2 2 1 2 5 6 6 6 5 10 9 5 3 6 7 6 8 8 7 7 9 7 7 10 10 11 10 10 10 10 10 10 10 12 11 12 13 14 14 15 14 14 14 15 15 14 14 14 14 14 14 15 16 15 15 16 17 18 19 20 21 21 20 19 19 19 19 17 15 16
6 5 3 1 1 0 1 2 1 6 4 3 4 3 5 8 8 7 6 5 3 3 2 3 2 1 2 4 3 3 1 1 4 8 6 4 9 10 6 2 4 7 6 6 9 7 7 9 7 7 10 10 11 10 9 10 10 10 10 11 11 12 12 13 13 14 14 14 14 14 15 15 14 14 14 14 13 13 15 16 17 18 19 19 19 20 19 21 20 19 18 18 19 18 16 15 15
2 2 1 1 3 1 2 2 5 5 3 3 3 4 6 7 8 7 6 4 3 3 1 2 1 1 3 2 6 4 5 3 3 4 6 5 8 7 7 4 4 6 7 6 7 9 8 9 9 9 8 9 10 10 10 10 10 10 9 10 11 11 12 13 13 14 14 14 14 14 14 14 14 14 14 13 13 13 16 15 16 16 17 17 18 19 19 19 19 19 17 18 19 17 16 15 15
2 0 1 2 2 2 3 1 6 3 2 4 5 6 6 9 6 5 6 4 3 2 1 2 1 1 2 3 3 1 8 8 9 9 8 6 5 8 5 4 5 6 7 9 7 8 10 10 8 7 8 10 9 9 10 10 10 10 10 10 10 11 11 12 13 14 14 13 13 13 14 14 14 14 14 13 13 12 14 16 15 16 16 16 17 17 18 19 18 18 17 17 17 16 16 15 15
2 1 0 1 2 0 3 6 4 4 3 4 3 5 8 7 5 5 3 4 4 4 4 3 3 0 0 6 5 4 4 6 8 8 8 9 4 4 6 6 5 5 7 9 8 7 7 8 8 8 7 9 9 10 10 10 9 9 9 9 10 11 11 12 13 14 13 13 13 13 13 13 14 13 13 14 13 13 12 15 15 15 16 16 17 17 18 18 17 18 17 17 16 16 16 15 16
2 1 0 1 2 2 1 3 4 2 4 4 5 3 4 4 4 4 6 5 4 4 4 4 3 2 2 7 5 3 5 7 7 7 7 9 7 3 5 4 7 5 8 10 8 7 6 8 9 8 7 6 7 9 9 8 9 9 9 9 10 10 10 12 13 13 13 13 13 13 13 14 14 13 13 13 13 13 13 14 14 15 15 15 15 15 15 15 16 17 17 16 16 16 16 16 17
1 1 1 2 3 3 1 4 4 3 4 3 4 4 3 1 3 3 4 6 4 4 3 5 3 1 1 5 3 2 8 8 8 9 6 7 7 4 2 3 5 5 7 8 8 8 7 6 9 9 7 6 7 6 8 8 8 8 9 9 10 11 9 11 13 13 13 13 12 13 13 13 13 13 13 13 13 13 14 14 14 14 14 14 14 15 16 16 16 16 16 16 16 16 16 16 16
2 2 0 2 4 1 4 3 5 5 5 4 3 4 1 3 2 2 3 6 2 6 4 4 1 0 1 4 2 3 7 8 7 7 6 5 6 4 4 4 4 4 8 7 9 8 7 6 5 7 8 7 7 7 5 6 6 6 7 9 10 11 10 12 12 13 13 13 12 13 13 13 13 13 13 14 13 14 14 15 16 16 16 15 15 15 15 16 16 16 16 16 16 16 16 16 16
1 1 2 2 4 3 1 2 4 4 4 4 6 3 3 3 3 2 2 2 4 3 4 3 3 0 0 3 2 5 7 5 9 7 7 4 5 3 3 5 0 5 7 8 7 8 8 6 6 5 6 9 7 8 7 6 5 5 8 9 8 9 10 11 12 12 13 13 12 13 13 12 12 13 13 14 14 14 14 14 15 15 15 14 15 14 15 16 16 16 16 16 16 16 17 16 15
0 1 1 2 0 1 1 1 1 1 3 5 5 5 4 3 3 2 5 2 3 2 1 3 0 2 3 6 3 5 5 7 9 7 5 5 6 4 4 3 6 5 6 5 5 6 7 7 7 6 6 5 5 5 7 7 6 7 9 8 8 9 9 10 10 11 12 12 11 11 10 10 11 12 12 13 14 14 12 12 15 15 15 15 15 15 15 15 15 16 16 16 16 17 17 16 15
1 3 1 1 2 1 1 1 1 0 3 5 4 6 4 2 1 2 2 1 3 1 2 3 1 0 1 0 4 5 7 9 8 6 4 6 4 5 4 4 5 3 4 4 4 4 4 5 7 6 5 5 6 5 4 5 7 6 9 9 9 9 8 7 9 11 12 12 11 11 11 11 11 12 12 11 11 10 11 12 15 14 15 15 15 15 15 16 16 16 16 16 17 17 17 16 15
1 2 0 1 2 1 0 1 2 2 3 4 5 6 5 2 3 1 3 2 2 2 1 0 2 1 3 7 4 10 11 8 6 6 6 6 3 6 3 1 4 2 4 5 3 2 3 4 5 6 6 5 5 5 6 5 5 7 7 10 10 9 9 9 10 11 12 12 11 12 12 11 11 10 12 9 11 11 12 11 13 13 15 16 16 16 16 16 16 16 17 17 17 17 17 16 16
0 0 1 1 3 2 1 0 1 1 3 4 4 5 4 3 0 2 2 0 3 1 1 2 2 1 4 4 8 9 9 8 7 6 6 5 5 4 2 1 3 2 2 4 4 2 0 3 4 3 5 5 5 5 5 5 6 8 6 8 10 10 10 11 10 11 11 11 11 11 10 8 7 6 7 7 10 8 11 12 12 14 15 15 16 16 16 16 16 16 17 18 17 16 14 14 15
0 0 1 3 5 0 2 1 2 7 5 4 5 5 5 4 2 1 0 1 0 4 1 4 5 6 7 7 9 8 7 9 7 8 6 6 5 5 4 5 5 5 4 4 4 4 4 2 3 3 3 5 5 4 5 5 5 6 6 6 6 8 9 9 9 7 7 7 11 8 6 6 6 6 6 7 7 8 9 12 12 13 15 15 15 16 16 16 17 17 17 16 15 12 10 7 8
1 1 2 4 2 1 4 4 8 3 5 6 5 4 3 5 7 3 2 3 3 3 3 5 5 6 5 6 9 8 8 7 8 7 9 8 8 9 7 6 6 6 6 5 3 4 4 4 4 4 2 3 7 6 4 6 6 4 6 6 5 8 8 9 7 7 6 7 7 6 6 5 6 6 6 6 7 10 10 12 12 12 13 13 15 16 16 17 16 15 14 12 10 8 6 5 6
1 1 3 0 1 4 6 7 4 4 2 7 4 3 1 5 4 3 2 4 7 6 5 5 7 6 8 7 7 8 8 7 7 7 8 8 7 8 8 8 7 7 8 7 6 4 6 4 6 6 6 4 4 5 4 6 5 5 5 6 6 6 7 6 7 7 6 7 6 4 6 6 7 6 10 14 11 8 9 11 12 12 12 12 13 10 12 13 14 13 10 6 5 5 6 7 7
1 1 0 1 3 1 4 5 5 3 4 2 4 2 0 2 2 4 4 3 4 6 6 7 9 11 12 10 9 8 8 8 7 6 7 8 7 6 7 8 7 6 6 7 7 6 6 5 4 4 8 6 4 5 5 5 6 6 5 6 5 6 6 6 6 7 7 7 6 4 3 5 8 8 7 6 7 7 7 7 6 6 6 6 8 6 6 6 4 2 2 6 5 5 6 6 6
0 1 3 2 5 3 3 4 5 4 3 1 5 4 2 3 3 3 3 4 2 0 0 0 1 6 14 12 9 7 8 8 8 8 9 9 9 8 7 6 5 4 4 7 7 7 8 7 6 4 6 7 7 6 5 5 7 5 6 6 6 5 6 5 6 6 6 7 6 4 4 6 7 8 7 6 6 7 7 6 6 5 5 5 5 6 6 4 3 3 5 6 6 6 6 6 6
1 1 3 4 1 2 1 2 3 4 1 2 3 1 3 1 2 4 4 5 2 3 5 6 4 12 13 12 11 9 9 9 9 11 10 9 9 8 8 7 8 8 6 7 8 7 8 7 7 5 4 6 8 8 7 6 6 6 6 6 6 6 5 5 6 6 6 6 6 6 7 5 7 7 7 7 7 6 7 6 6 5 5 6 5 6 5 4 5 6 6 6 6 6 6 6 7
0 1 2 3 3 4 3 2 2 2 6 3 2 2 0 3 2 1 5 5 2 5 7 8 7 9 12 12 10 12 11 11 11 10 9 9 8 9 8 8 7 6 5 6 9 9 10 10 9 8 6 5 5 7 7 8 6 6 6 6 6 6 6 6 5 6 6 6 6 6 5 7 7 8 7 8 7 6 7 6 6 6 6 6 6 4 4 6 7 6 6 6 6 5 6 6 7
2 2 2 1 2 2 3 1 1 1 1 2 4 2 2 1 0 4 3 3 4 4 6 6 6 5 7 10 10 9 8 7 8 8 6 5 6 6 5 6 6 7 7 7 7 7 9 10 10 9 6 7 6 5 5 8 7 6 6 5 6 7 7 5 5 5 7 5 5 6 8 8 5 7 8 8 8 7 7 7 7 6 6 6 5 4 5 6 6 7 5 5 5 6 6 6 6
1 3 4 3 3 3 2 3 1 0 1 1 1 2 1 3 1 4 7 5 5 5 5 6 6 6 5 8 9 8 9 10 8 8 10 7 6 7 8 6 7 8 7 6 6 5 6 7 8 9 8 7 6 5 5 5 6 7 7 7 6 6 6 6 5 5 5 7 7 6 7 8 7 8 8 8 9 8 7 8 8 7 7 6 6 6 6 6 6 5 5 5 5 6 6 6 6
1 3 3 4 4 3 2 1 2 1 1 1 1 3 1 1 4 6 3 6 7 4 6 5 6 5 6 5 7 8 9 10 11 8 6 6 7 8 8 8 7 8 8 8 7 7 7 7 7 9 9 7 5 5 5 6 5 6 8 7 6 6 6 5 5 6 6 4 6 8 7 8 8 6 7 7 7 7 7 8 8 6 5 6 6 6 7 7 6 5 5 5 5 5 5 6 6
2 4 4 4 3 2 1 1 4 2 1 0 1 4 2 4 1 9 2 1 3 6 5 5 5 5 5 7 6 6 7 7 8 8 11 10 10 9 8 10 10 6 9 10 8 6 8 9 9 9 10 8 8 7 5 5 5 3 6 8 7 6 6 4 5 4 5 5 5 7 6 6 7 6 7 6 7 8 8 7 7 6 6 7 8 7 8 6 5 6 6 6 5 5 6 6 6
2 3 3 4 4 3 4 3 4 3 1 1 0 3 6 4 6 15 5 4 4 4 4 5 5 5 5 5 6 6 7 6 8 9 10 10 8 8 10 9 10 8 6 8 8 8 9 9 9 8 7 6 5 5 4 3 1 1 2 3 6 7 6 6 6 6 6 7 7 7 7 7 6 7 7 8 6 8 8 8 7 6 6 8 8 9 9 7 6 7 8 5 5 6 7 7 5
1 1 2 4 3 3 7 3 4 2 2 2 2 1 6 10 17 8 6 6 4 4 4 5 5 5 5 5 5 6 5 6 6 9 8 8 9 9 10 8 8 8 7 7 8 10 8 6 7 6 6 7 7 4 4 3 3 3 3 3 3 7 7 6 6 5 5 6 7 8 8 7 6 5 6 5 6 7 8 9 9 7 7 8 9 9 9 8 8 9 8 6 6 6 7 7 7
1 3 1 2 3 2 8 3 5 3 1 1 0 1 8 4 5 2 4 6 6 5 5 5 5 5 5 5 5 6 6 8 9 8 8 8 8 8 10 7 8 8 6 7 11 10 9 8 7 6 7 6 7 6 6 5 4 5 5 4 4 6 7 7 6 5 5 3 6 7 8 6 6 6 6 6 4 6 8 8 8 8 8 8 9 8 9 8 9 9 8 8 6 6 6 6 6
1 2 3 2 2 1 2 3 7 4 1 3 2 3 7 10 3 1 2 3 2 4 4 5 5 5 6 6 6 6 7 7 8 8 9 9 9 8 10 11 10 10 11 9 8 8 8 7 7 5 6 6 6 6 5 5 4 5 5 5 6 4 7 7 7 6 5 4 3 4 5 7 6 7 6 8 8 6 7 8 8 8 9 8 8 9 9 9 9 8 6 7 9 8 8 6 5
2 3 1 3 3 3 1 2 2 3 4 1 6 4 4 1 4 3 4 6 5 4 4 5 5 5 5 6 7 6 6 6 8 9 9 10 9 8 9 11 12 12 10 9 9 8 8 7 8 7 8 7 6 6 5 5 4 4 4 1 1 3 4 5 6 6 5 4 3 3 3 4 6 8 7 8 6 7 7 8 8 10 9 10 10 9 9 9 10 9 8 7 7 10 9 8 7
3 3 4 1 4 4 2 2 1 1 2 2 4 4 7 8 3 3 3 4 5 5 6 6 6 5 5 5 6 7 7 7 9 10 11 12 10 11 9 10 10 10 9 9 9 10 10 8 8 8 7 7 7 7 6 6 5 4 3 5 2 1 1 2 5 4 4 4 1 3 4 4 5 6 8 9 7 7 8 9 8 9 9 9 9 10 9 8 9 9 10 7 6 8 9 9 9
4 5 3 4 0 3 1 3 4 3 0 2 3 8 10 9 11 8 6 7 6 7 7 7 6 6 5 6 6 8 8 9 10 10 12 12 12 11 9 8 8 9 8 9 8 8 7 7 7 8 7 7 7 6 6 5 4 3 2 5 4 1 1 2 3 5 4 3 2 2 3 5 6 6 8 9 8 7 8 9 10 10 7 8 9 10 10 9 9 9 11 9 5 4 8 9 10
5 3 1 2 3 3 3 3 2 2 3 4 6 8 7 8 10 9 8 7 9 9 8 7 7 7 7 7 7 7 8 10 8 8 11 11 11 11 10 9 8 8 8 8 9 8 9 7 7 7 7 7 5 5 6 5 4 5 5 4 3 1 0 1 1 4 4 3 2 3 3 4 6 8 9 9 10 9 9 9 10 10 10 10 10 11 10 10 12 12 10 12 10 7 5 9 10
3 1 1 2 4 2 3 3 2 0 1 5 8 9 9 9 8 8 7 6 6 6 6 6 6 8 8 8 9 10 9 11 6 9 10 11 11 10 8 8 8 8 8 9 9 10 10 10 9 10 8 7 7 7 6 7 6 4 2 4 4 3 3 2 2 3 4 4 3 4 5 5 3 3 6 10 10 10 9 9 9 10 10 11 11 12 12 12 10 10 11 9 14 12 8 7 9
2 2 3 5 1 2 2 2 1 3 1 2 4 6 9 8 6 6 6 6 10 10 9 9 10 9 8 9 10 11 9 3 4 5 5 7 7 8 8 8 8 11 10 10 12 12 11 9 10 9 8 8 8 7 7 6 5 5 5 5 4 4 5 6 6 5 5 4 4 4 4 4 3 3 3 4 10 11 10 9 10 11 11 10 9 9 10 10 11 10 10 8 4 13 10 9 10
2 0 2 1 3 2 3 3 1 1 1 6 4 5 11 9 7 6 7 9 11 11 11 11 8 8 8 8 10 9 6 7 5 6 6 7 7 8 7 7 7 9 9 10 9 9 9 9 9 8 8 8 7 7 8 6 4 4 5 4 6 3 3 4 4 4 5 5 5 4 3 3 4 4 3 4 6 10 11 11 11 10 11 10 10 10 10 11 12 13 12 12 9 3 8 8 10
1 1 1 3 1 1 2 0 1 2 2 3 4 6 12 14 9 13 15 14 14 13 9 7 7 9 8 10 10 7 8 8 8 8 8 7 8 8 6 7 8 6 6 6 8 10 9 8 8 9 9 7 7 6 7 6 6 4 2 1 3 6 4 4 3 3 5 5 5 3 2 3 4 4 4 5 5 4 7 12 11 11 11 12 12 12 11 11 11 10 10 8 12 11 8 9 8
4 4 2 3 2 2 2 1 3 3 2 3 5 7 8 10 9 4 8 13 11 12 8 7 8 8 8 6 5 6 7 7 7 7 7 7 7 9 10 8 7 8 8 8 8 9 7 9 8 8 8 8 7 7 7 8 7 5 5 5 5 6 4 4 4 3 4 4 4 4 4 3 5 4 4 5 6 8 7 7 10 11 12 11 11 12 13 14 15 13 13 12 13 14 11 8 9
2 6 9 6 2 5 2 2 4 2 2 1 1 6 5 1 3 6 2 1 5 6 6 8 10 8 6 7 8 6 6 5 5 5 8 10 10 7 6 7 7 7 7 7 8 8 6 7 7 7 7 6 7 8 8 7 8 8 7 7 7 5 6 6 9 9 7 6 6 3 4 3 4 4 5 5 6 7 8 8 9 10 9 10 10 11 11 10 12 13 14 14 12 11 14 11 9
0 2 4 3 3 2 3 3 1 2 1 1 1 0 9 4 9 8 8 8 9 4 6 10 9 7 6 8 7 7 7 5 4 4 3 7 6 6 6 7 7 7 6 5 6 7 7 7 7 7 7 6 7 7 8 7 7 7 8 8 5 6 7 5 3 2 5 3 4 5 4 3 3 5 5 5 5 6 8 8 9 10 11 10 10 10 11 13 13 14 12 11 12 10 10 12 12
2 1 2 1 0 1 1 1 0 3 1 3 6 5 6 10 8 7 12 15 14 7 8 10 10 7 7 7 6 5 5 5 5 5 4 6 8 9 8 8 7 8 6 6 6 6 7 8 8 8 7 8 6 7 8 8 8 6 7 6 5 5 6 4 4 3 4 5 4 4 4 4 3 4 4 4 5 6 7 8 8 9 10 10 11 12 13 12 10 9 12 11 9 10 12 12 12
1 1 3 2 3 4 0 1 1 2 4 7 4 2 3 6 3 7 10 10 10 9 8 10 9 6 5 5 5 5 5 3 4 4 3 3 6 6 6 7 6 6 6 7 6 6 6 7 8 7 8 7 6 6 8 6 6 6 6 7 7 6 5 4 5 4 4 5 5 4 4 4 4 3 4 4 4 5 6 8 9 9 10 10 10 9 10 12 15 14 13 11 11 10 10 8 8
1 2 2 3 3 2 2 1 2 3 2 9 5 4 3 15 4 4 7 6 8 7 8 11 8 5 6 6 4 5 3 2 1 2 2 2 2 5 6 6 6 5 5 5 5 5 5 5 6 6 5 6 6 6 7 6 6 5 7 7 8 7 6 5 7 6 5 5 6 5 4 4 4 4 4 3 4 4 6 6 8 10 11 10 10 10 10 11 12 12 14 13 12 12 9 9 11
5 2 5 2 2 1 1 1 1 2 2 11 8 10 5 8 2 8 7 6 8 9 4 1 4 5 4 4 5 4 4 3 3 2 3 4 4 4 6 6 5 5 5 5 5 6 5 6 7 7 6 7 8 8 8 7 6 6 7 8 9 8 7 7 7 6 6 6 6 6 5 5 4 4 4 4 4 4 5 5 7 8 9 9 10 9 10 11 11 12 13 12 10 10 9 9 8
3 1 2 2 1 2 1 0 1 1 9 3 4 10 8 5 5 2 2 1 4 1 2 2 4 4 3 3 4 5 4 5 4 4 3 4 4 3 4 6 6 5 5 5 5 5 6 6 7 8 7 8 8 8 8 7 7 7 6 7 8 7 7 7 8 8 8 8 7 7 5 4 4 4 4 4 4 4 5 6 6 6 8 8 9 9 9 10 9 7 5 7 9 8 6 6 8
0 2 3 5 1 2 2 1 2 5 7 1 3 2 3 15 9 1 0 1 1 2 4 1 2 4 4 5 5 5 5 5 5 5 4 4 5 6 5 6 6 6 6 6 7 6 6 7 8 9 9 9 10 9 9 8 8 8 9 9 8 7 7 8 8 8 8 8 7 7 7 6 5 5 5 6 6 7 6 7 7 8 8 9 9 8 8 10 9 8 8 8 9 9 8 8 8
4 6 7 5 3 3 4 4 2 2 2 2 1 3 5 9 7 6 13 9 4 4 2 3 4 6 7 6 5 5 5 5 5 6 6 5 6 5 5 7 7 7 7 7 7 7 6 6 7 8 7 7 8 8 9 9 9 9 9 9 8 6 6 8 7 7 7 7 7 8 8 8 8 9 9 10 9 9 7 7 7 7 6 6 9 8 8 10 11 11 11 11 8 6 6 7 8
9 4 8 8 6 3 4 4 6 6 5 0 4 2 8 1 3 2 1 1 4 3 1 0 1 3 1 4 5 5 6 5 5 6 7 7 8 8 8 6 7 8 8 8 7 7 6 6 7 7 7 7 8 8 8 8 8 8 9 8 8 6 6 6 6 5 7 7 6 7 6 6 7 7 8 8 8 9 8 6 6 7 6 6 6 6 6 7 9 8 8 6 5 6 7 7 7
4 4 1 3 9 1 4 1 0 1 2 2 1 6 2 5 3 6 4 4 6 4 3 6 7 5 3 2 6 7 7 7 6 6 6 7 8 8 7 7 6 6 8 7 7 7 7 8 7 8 9 9 9 9 8 8 7 7 7 9 9 6 5 5 5 4 6 7 7 7 7 7 6 6 5 6 7 9 8 8 7 6 5 5 5 5 6 6 6 7 7 8 7 5 8 9 7
5 3 7 8 1 2 0 2 1 2 2 9 3 6 8 4 13 13 12 13 12 7 5 5 7 6 2 5 7 7 6 7 8 6 7 7 6 7 8 7 7 6 7 9 9 9 9 8 8 9 9 7 9 9 9 8 7 7 8 8 8 7 6 7 7 7 7 6 6 6 6 6 5 5 5 6 7 7 7 7 7 6 6 6 6 5 6 5 6 7 8 9 9 6 8 9 8
6 5 6 2 3 2 3 5 1 2 8 8 3 8 12 1 13 3 2 8 7 7 7 7 7 6 6 8 8 9 8 5 6 8 7 6 7 8 7 6 7 8 8 8 8 7 8 8 9 9 10 11 10 10 9 8 8 7 7 9 9 9 8 7 6 7 6 6 5 5 5 6 7 6 6 6 7 7 7 7 7 7 5 7 7 6 5 6 7 7 7 7 7 9 9 7 7
3 4 1 6 2 3 3 2 6 5 5 4 5 8 10 9 16 6 6 2 4 7 8 7 8 7 8 7 9 8 1 4 5 6 5 6 7 8 7 7 6 6 7 7 7 7 7 6 7 8 10 10 10 10 10 9 9 7 7 9 9 8 8 7 6 6 6 6 7 6 7 6 5 6 7 7 7 7 7 6 6 7 7 8 7 8 8 8 8 8 8 8 7 8 9 9 7
1 2 1 1 2 3 6 7 1 2 7 4 10 5 8 8 8 5 5 5 7 9 8 9 10 9 6 7 9 5 5 5 6 5 6 6 5 6 7 7 8 8 7 7 7 6 7 7 6 6 5 6 7 9 11 12 11 9 8 7 8 7 8 8 7 7 7 7 7 7 6 5 6 6 6 7 7 8 8 8 7 8 8 7 8 7 8 8 8 8 9 8 8 9 10 10 8
1 0 2 1 1 1 3 2 5 6 4 6 5 9 7 9 5 7 9 9 9 10 10 8 8 8 8 6 3 4 5 6 6 5 5 5 5 5 6 6 6 5 5 5 6 7 7 6 6 7 7 7 9 8 8 10 10 10 10 9 9 8 8 8 8 7 8 8 8 7 7 6 6 5 6 7 7 8 8 8 7 7 8 9 9 9 8 9 9 8 7 9 9 10 11 9 10
13 13 12 13 8 4 4 9 1 1 4 3 4 11 8 13 2 5 4 3 1 1 4 3 4 2 1 2 1 1 3 4 5 5 5 5 5 5 5 5 5 5 5 6 6 6 7 8 7 7 7 7 8 8 8 7 8 10 11 10 9 7 8 7 8 7 8 7 7 7 6 6 7 6 7 7 7 6 7 7 7 7 7 8 8 9 8 9 10 10 8 7 9 10 11 10 10
Wind_Direction
303 280 236 222 226 244 306 220 314 212 211 102 124 131 86 88 127 118 102 175 114 37 47 60 33 36 38 63 33 77 35 49 3 102 145 130 128 120 115 118 124 130 121 122 124 124 112 113 130 130 134 140 132 124 141 125 115 111 107 106 100 99 96 88 84 80 79 76 75 76 76 76 75 75 73 73 77 81 86 84 82 84 88 80 76 81 81 79 75 73 71 68 67 69 72 72 61
295 281 258 238 247 323 243 165 272 264 130 85 69 97 124 85 239 128 108 66 58 98 64 55 67 74 359 23 330 144 51 49 63 86 83 104 110 104 115 127 142 129 131 126 137 132 117 120 140 141 137 137 132 132 121 114 111 107 111 108 107 102 97 93 89 84 81 80 79 78 78 79 79 78 75 73 78 80 79 83 85 83 81 83 85 79 79 80 78 76 74 71 69 70 72 63 60
305 308 277 211 254 216 300 256 281 223 133 92 64 80 139 147 104 60 70 84 89 88 73 73 102 114 313 244 75 25 90 90 95 96 103 123 135 125 158 155 132 133 128 137 133 125 127 124 140 145 134 129 129 127 127 122 115 115 114 111 110 107 103 98 93 89 85 84 83 82 80 81 80 80 77 75 77 80 81 82 84 81 86 89 85 82 80 79 79 78 76 70 69 71 68 63 57
290 272 277 248 286 148 255 207 238 349 69 116 82 135 156 97 78 84 77 92 86 113 151 132 134 337 352 42 10 106 88 75 84 114 132 168 144 132 186 172 129 126 119 122 120 121 112 130 143 138 131 129 126 126 123 119 118 122 116 116 111 108 106 100 96 93 89 87 85 84 83 82 83 83 80 77 79 84 87 86 83 87 81 78 85 82 81 83 83 79 73 71 72 73 72 64 55
267 259 208 305 250 241 300 253 299 43 33 360 116 165 104 96 104 96 86 83 97 60 55 86 96 352 71 61 7 47 82 83 120 123 92 83 114 134 164 171 144 123 135 132 128 116 121 128 131 127 129 124 121 120 119 118 119 117 119 119 116 114 107 101 97 93 90 89 87 87 86 85 85 86 85 81 79 85 88 89 90 83 87 90 87 85 85 85 81 78 75 73 76 77 74 64 54
241 262 191 182 251 72 312 314 52 70 37 358 107 101 93 105 108 112 111 81 68 65 14 76 34 151 111 51 1 83 246 128 104 94 126 103 119 130 144 196 151 136 134 126 117 117 124 124 121 126 127 121 118 119 117 118 122 123 124 122 120 117 110 105 102 97 93 91 90 90 90 90 89 89 88 87 84 86 87 86 81 81 80 81 83 87 85 82 82 81 77 75 78 79 71 62 53
291 270 196 245 279 146 244 267 80 91 340 3 97 117 99 99 110 120 117 112 93 101 322 63 310 25 113 126 77 65 19 84 93 29 71 133 123 123 142 196 141 139 141 113 99 112 117 120 125 122 122 122 118 118 121 119 120 123 124 121 123 122 116 111 105 99 95 93 92 92 93 93 91 90 89 88 87 86 92 95 89 87 90 91 89 86 85 84 83 81 77 78 80 76 67 60 53
234 84 173 217 281 137 251 87 59 63 29 35 19 98 105 112 132 128 153 149 159 145 212 61 80 345 77 247 100 69 68 60 109 112 106 91 99 134 183 170 141 142 134 102 103 109 113 120 124 111 130 125 126 127 125 125 124 125 127 129 122 115 115 112 106 100 97 96 95 95 96 96 95 93 91 90 88 87 91 91 86 86 86 85 85 85 83 85 84 83 82 81 79 72 65 59 50
253 201 295 22 294 156 301 71 95 83 120 83 53 47 101 131 151 137 142 88 142 109 159 167 85 176 163 84 70 125 84 90 96 119 121 113 124 168 187 155 144 136 114 105 112 118 111 117 119 113 116 131 131 129 131 132 127 125 126 126 126 122 120 117 109 103 100 99 100 99 99 98 97 95 94 94 91 88 85 94 98 94 92 88 87 85 85 85 86 86 83 80 77 71 64 57 51
291 146 303 241 281 237 243 100 95 102 109 121 127 123 116 144 143 159 119 159 124 124 80 71 100 53 196 112 122 148 135 123 129 113 115 129 138 187 221 142 135 137 124 123 131 119 111 111 111 108 107 124 129 131 133 134 134 130 131 129 125 125 127 123 115 110 108 105 105 105 103 102 101 100 97 94 93 90 88 90 90 90 86 88 87 88 88 89 88 88 86 81 76 70 64 59 51
259 157 213 0 258 240 195 103 105 119 102 90 107 123 122 156 137 147 158 103 154 108 131 129 119 164 259 86 82 7 125 130 138 132 140 142 137 185 176 313 134 152 123 129 122 122 124 112 114 109 102 101 108 106 129 133 135 140 136 136 132 129 136 128 120 116 113 111 109 107 105 105 103 102 100 95 94 93 93 91 88 91 91 92 92 93 94 90 90 89 89 85 77 72 67 62 55
252 208 105 286 283 80 14 99 107 89 116 137 114 137 160 139 168 142 119 122 120 128 142 193 100 131 198 128 113 179 133 151 135 128 116 116 137 181 169 205 138 143 125 125 126 136 127 125 119 112 101 97 101 95 90 127 133 129 132 130 132 132 140 133 125 121 117 113 110 108 108 107 106 103 102 100 97 96 95 96 96 93 92 93 94 96 96 95 95 93 92 83 78 73 70 64 57
255 251 204 250 272 36 1 21 82 132 130 198 139 138 154 135 178 169 139 116 140 143 137 175 109 42 31 76 131 131 150 142 121 122 129 157 153 109 357 62 81 143 119 129 135 138 131 142 130 132 120 114 105 106 98 89 105 106 124 129 128 131 138 135 130 123 118 115 113 110 106 105 105 104 103 103 102 99 98 97 99 99 100 103 102 100 100 101 98 97 91 82 77 73 69 63 55
3 315 310 252 237 19 1 96 172 181 186 127 118 130 161 149 218 192 131 177 140 156 10 79 84 60 124 108 132 156 145 119 123 127 161 164 118 102 62 54 34 54 101 109 114 140 141 148 143 137 138 136 126 111 99 95 94 120 125 129 128 129 135 142 131 125 116 111 107 105 104 103 103 103 103 104 105 103 101 100 101 102 101 100 101 100 101 101 102 100 90 82 77 72 67 60 50
351 334 347 290 323 34 65 335 40 201 42 95 124 139 154 78 326 29 41 172 48 93 167 22 33 94 338 224 166 166 136 123 130 138 118 82 107 102 79 46 68 45 81 90 107 132 147 159 143 140 156 158 144 145 126 98 95 108 129 127 125 123 124 130 126 113 113 114 111 104 98 92 87 86 85 86 93 93 94 97 101 103 102 101 101 103 106 105 106 100 87 82 76 72 66 57 48
352 9 335 314 279 137 351 200 96 352 128 108 169 128 132 72 360 125 67 9 123 17 322 78 351 54 75 74 80 115 120 122 127 129 116 116 101 81 79 88 98 82 85 106 101 128 147 158 139 156 160 161 157 154 137 126 103 108 127 133 130 124 125 127 124 119 119 116 114 111 107 100 98 93 90 86 83 86 89 95 99 102 105 103 103 105 108 108 105 94 89 84 79 73 67 58 49
236 121 334 192 288 161 169 156 121 87 122 119 148 154 147 148 187 60 223 310 139 151 123 112 112 104 77 112 118 110 114 116 125 131 124 123 108 98 83 203 133 115 159 143 131 161 90 160 148 160 159 167 153 154 149 132 134 121 116 130 131 128 126 132 125 119 119 121 121 122 115 111 108 102 94 94 88 92 97 100 105 107 107 105 105 106 107 107 100 97 96 92 87 79 71 61 54
312 228 187 277 241 165 162 100 117 162 126 150 168 182 138 130 159 110 50 94 229 120 181 100 66 58 101 113 119 115 121 131 143 144 147 143 149 144 174 193 158 165 165 169 154 155 171 166 164 146 157 159 149 167 154 139 149 150 140 139 138 132 129 130 134 138 135 136 138 139 125 128 126 110 102 101 101 97 96 101 103 108 108 108 107 106 108 107 106 104 102 98 93 92 84 72 60
166 237 178 246 4 1 345 71 38 35 108 157 167 197 195 160 151 167 157 188 188 161 197 150 129 105 98 121 122 136 143 146 157 163 161 162 172 165 177 188 176 174 175 158 172 174 181 167 170 166 171 170 160 173 162 143 150 152 149 155 149 145 147 150 152 151 152 150 162 162 141 157 123 119 121 108 101 97 99 102 104 107 109 108 110 109 110 111 110 107 103 103 102 92 82 74 66
247 51 242 163 13 65 31 48 71 53 348 130 146 185 233 130 142 134 219 182 170 202 185 178 176 171 160 152 150 144 157 154 172 173 172 174 183 169 178 186 190 191 173 166 159 184 175 207 177 170 176 189 157 144 151 151 156 156 152 163 160 156 157 168 160 162 161 164 177 181 146 149 119 106 107 109 105 101 94 93 99 101 102 102 104 106 107 112 114 112 114 97 76 73 81 78 71
30 82 250 6 318 57 20 45 37 25 17 97 132 83 223 151 120 167 196 280 200 205 208 172 197 180 169 158 156 154 160 162 171 189 182 184 188 183 180 185 191 200 166 151 144 177 178 204 207 188 169 171 165 147 165 160 162 162 167 162 165 171 172 176 165 176 168 172 180 156 139 104 119 124 126 125 120 117 116 114 111 111 111 107 103 108 110 111 97 94 69 62 55 58 62 65 69
147 193 83 5 357 69 2 66 26 356 291 16 96 132 207 89 75 193 216 191 229 217 294 217 148 164 147 157 160 160 165 167 176 188 194 190 189 190 180 171 187 203 155 154 161 175 183 187 192 210 166 171 172 156 167 168 161 170 167 168 161 179 173 177 171 178 173 173 178 151 135 123 133 131 142 140 134 133 132 138 129 132 130 124 126 125 135 137 139 97 72 58 48 51 62 69 69
220 114 86 47 10 89 8 67 5 336 353 117 157 26 64 129 177 196 236 225 131 143 101 72 58 127 151 144 149 169 169 178 183 192 192 195 195 196 189 179 175 188 189 170 163 172 178 193 184 185 199 182 178 159 174 163 174 174 170 169 163 181 175 181 178 177 176 179 176 156 150 154 148 147 153 148 145 148 148 152 142 144 141 137 147 146 157 147 91 78 75 73 65 61 58 65 71
355 87 127 44 26 74 22 82 352 6 7 46 8 268 307 125 248 139 205 226 180 107 107 104 90 108 130 145 165 172 179 181 192 194 195 200 196 197 190 187 177 179 189 178 170 179 179 185 178 184 193 188 196 178 166 162 175 173 165 162 170 176 177 196 181 181 176 184 183 157 150 165 160 161 163 150 155 158 160 150 146 143 145 147 162 167 137 97 94 92 93 89 88 77 80 73 77
197 172 109 122 88 92 81 109 97 21 41 7 8 7 257 44 270 11 258 232 248 141 123 117 114 122 146 148 167 174 178 185 190 192 195 206 211 209 204 186 178 180 188 183 171 165 169 180 181 180 186 186 196 188 190 165 172 167 155 162 184 171 179 195 195 187 182 181 181 154 163 167 172 168 171 156 159 167 163 147 144 157 152 161 162 148 106 101 104 106 106 104 97 89 82 80 81
217 76 110 130 98 117 138 111 107 191 80 11 339 252 233 103 175 261 248 239 217 172 130 135 136 136 172 166 172 172 181 187 184 185 196 193 199 203 213 201 181 195 176 172 161 172 168 183 178 175 191 191 185 190 203 193 171 161 163 172 175 170 175 185 189 204 193 184 193 180 166 169 175 176 179 163 163 169 153 142 147 165 165 159 146 122 110 105 116 113 104 95 87 88 84 80 83
343 135 108 119 133 123 252 156 120 119 51 132 273 273 142 316 104 273 240 236 208 176 149 153 152 170 177 183 177 181 181 186 186 183 174 187 202 206 206 203 197 192 158 182 181 175 166 173 182 184 194 188 188 200 191 196 197 164 168 168 163 168 171 178 195 188 204 208 184 180 176 171 176 179 182 169 163 152 144 144 153 148 127 122 108 110 108 111 102 101 105 102 96 92 87 84 86
125 100 92 96 155 132 151 182 131 141 101 254 284 288 311 153 154 240 199 308 121 152 182 172 173 190 193 190 187 187 188 190 178 170 184 184 196 201 203 195 202 186 170 183 186 166 162 179 182 185 189 183 182 196 202 189 186 204 179 163 161 162 156 175 188 177 199 200 203 175 183 167 173 183 182 179 158 151 150 146 138 131 131 122 119 120 115 107 105 98 92 94 96 98 99 88 78
127 176 155 165 151 168 178 178 169 204 104 242 59 295 265 186 221 239 195 146 151 177 189 205 194 200 212 205 184 184 194 189 174 182 193 194 191 194 205 199 192 191 186 177 178 171 177 180 180 187 186 167 167 182 170 160 173 270 274 178 155 156 163 168 183 196 203 200 195 183 184 179 165 175 180 179 163 155 149 145 143 136 138 133 124 121 114 108 100 95 88 86 89 100 98 95 88
146 246 301 147 183 228 187 170 124 162 112 175 73 340 253 221 222 238 156 147 146 168 202 192 194 198 199 199 191 182 186 188 190 191 191 188 185 192 201 201 187 186 179 177 178 180 178 177 175 180 184 162 175 184 176 162 178 219 250 246 170 162 157 161 170 174 193 197 185 184 178 179 168 170 177 176 167 160 151 155 153 142 142 136 130 128 121 116 111 111 116 114 110 111 107 104 104
180 186 178 235 142 275 156 151 153 169 92 180 43 226 288 324 21 101 137 147 152 193 207 219 214 203 192 190 191 189 199 193 203 197 189 188 186 186 193 197 188 185 179 185 190 181 173 171 174 179 175 171 165 179 183 181 173 186 205 229 226 163 169 159 165 166 175 175 172 181 177 175 166 166 166 175 170 164 154 152 153 148 143 139 135 135 131 129 129 131 137 127 124 109 99 94 103
249 86 269 263 221 76 152 99 155 183 250 218 174 262 256 273 187 161 97 105 178 216 231 230 226 211 187 183 191 200 209 200 206 201 192 192 189 187 185 195 192 189 191 190 185 171 171 163 166 155 163 160 161 170 177 177 182 186 193 207 220 183 163 161 158 166 168 174 194 170 177 177 174 169 162 171 172 169 157 155 153 146 145 138 136 133 132 135 134 127 120 120 120 109 108 109 98
236 178 261 184 203 156 185 251 105 50 111 249 183 236 308 254 168 163 180 163 167 207 239 240 236 224 205 185 187 202 210 214 206 201 190 190 200 192 189 190 193 191 186 179 180 173 170 161 167 163 172 172 162 168 173 181 184 195 211 192 137 125 133 144 144 147 155 172 193 198 185 169 167 171 163 167 166 154 156 148 149 151 151 146 141 139 139 140 138 132 126 125 135 134 132 118 101
213 176 228 272 171 165 200 25 275 155 196 187 233 255 250 272 257 178 233 186 178 198 216 227 230 220 213 201 193 197 202 203 209 200 196 189 196 196 190 190 187 182 181 175 178 177 177 162 173 179 167 177 171 169 175 180 183 186 200 140 106 73 73 108 153 141 138 146 215 202 189 186 173 153 157 159 163 156 150 146 144 145 148 140 140 141 142 141 134 133 131 141 150 140 132 126 115
196 183 210 262 190 273 207 160 171 147 211 288 218 220 249 268 284 273 210 200 190 204 211 216 220 223 223 213 211 212 207 206 215 201 195 193 191 193 186 184 180 176 177 173 170 171 172 161 164 175 168 172 175 163 156 158 165 190 159 125 114 96 41 36 103 131 121 124 198 262 198 191 186 161 157 153 151 148 146 148 146 144 142 145 142 141 141 143 138 139 141 139 127 122 132 127 122
25 26 176 237 212 220 215 71 154 193 165 214 240 247 247 241 250 254 255 215 199 215 219 223 225 228 233 236 235 230 220 221 212 196 193 191 189 185 182 177 176 173 174 175 168 167 176 162 162 170 173 168 161 139 137 142 151 178 177 99 96 128 253 72 68 117 117 127 186 215 215 213 189 179 166 161 154 155 150 154 151 149 154 152 151 149 153 158 154 144 144 137 127 111 110 125 125
9 340 4 341 359 21 80 85 38 13 344 245 234 247 252 255 255 265 271 276 266 258 252 237 221 220 220 225 233 235 232 231 205 198 187 187 183 180 174 169 172 169 176 178 172 174 179 173 163 178 177 167 163 155 161 163 167 172 180 177 167 160 180 201 177 124 143 157 177 199 203 198 180 170 175 163 160 156 155 152 152 159 159 160 162 165 162 155 151 144 140 147 140 133 133 138 133
38 30 3 323 93 315 62 135 189 23 76 290 295 290 274 266 263 265 270 276 265 250 248 244 240 230 218 220 234 235 236 250 199 206 185 168 167 167 164 166 168 172 189 182 183 181 177 170 173 172 173 173 176 165 162 167 173 178 170 176 160 167 168 191 203 176 165 151 169 188 198 178 166 151 136 162 156 158 153 157 164 166 164 167 160 154 152 145 145 147 146 132 156 141 143 159 156
72 7 349 12 294 114 63 62 333 157 113 258 277 295 283 273 262 260 250 243 250 240 230 236 234 237 227 223 231 235 229 230 202 201 173 164 161 163 166 172 184 186 182 185 184 170 175 176 175 169 177 173 176 158 154 166 166 179 178 168 167 166 160 175 189 171 152 163 174 179 178 164 162 149 140 139 162 162 160 160 168 168 168 155 146 150 152 153 157 156 158 148 143 120 133 165 173
301 150 205 217 223 66 293 7 344 233 212 278 320 302 280 278 257 246 242 236 245 250 247 246 232 231 224 219 216 214 215 213 203 194 188 172 167 167 166 176 185 175 176 183 181 179 181 181 175 172 174 168 166 163 148 155 163 174 140 43 138 141 157 125 107 120 143 151 173 156 153 157 153 162 154 152 150 161 172 167 164 167 169 166 158 154 155 150 148 150 145 153 142 140 159 178 206
199 212 229 238 223 208 200 151 236 192 262 26 311 289 270 260 270 265 249 232 236 256 265 261 253 234 229 240 245 210 210 202 209 202 187 170 169 183 185 183 167 178 183 185 185 183 186 185 177 169 166 164 161 159 155 150 144 117 111 99 92 83 79 126 140 175 173 164 147 170 171 146 156 162 168 166 167 168 175 171 165 169 165 165 157 157 162 164 163 161 160 162 168 156 163 169 200
264 207 196 210 250 294 50 55 24 344 289 238 1 348 297 300 237 238 291 95 222 246 243 248 245 242 235 238 236 245 247 224 198 198 185 181 184 184 181 174 178 186 187 188 182 180 170 174 166 159 153 154 159 165 166 152 157 156 155 160 166 170 170 179 197 196 181 183 185 145 133 154 149 157 169 172 172 168 171 171 165 160 165 163 165 164 157 152 161 169 178 172 170 174 159 165 177
41 288 3 15 320 19 60 344 58 314 270 246 270 121 274 323 293 287 287 282 255 232 220 244 248 238 212 221 224 220 218 228 224 220 138 163 179 180 181 179 181 183 196 174 175 177 166 166 163 158 154 160 163 165 170 148 163 168 178 191 195 193 191 203 193 156 165 153 134 158 153 146 152 157 169 171 171 173 170 170 169 168 167 168 161 157 167 174 175 176 175 180 173 164 161 167 176
250 317 327 344 79 103 46 52 173 238 326 274 178 174 260 287 260 241 250 254 261 254 241 239 239 231 214 206 207 198 178 164 173 175 197 167 178 178 182 180 179 185 178 170 175 173 166 166 161 158 151 161 168 161 158 160 166 167 174 191 198 202 204 191 171 149 134 141 141 145 142 156 149 148 161 169 173 177 173 171 173 169 168 172 169 175 174 173 171 176 182 182 169 172 175 174 173
190 226 276 72 71 91 38 121 317 285 25 289 174 161 319 244 255 214 223 250 263 255 237 245 241 233 192 143 119 110 106 105 128 153 171 177 167 179 167 171 178 170 173 173 174 172 161 160 159 156 155 161 167 153 152 166 160 164 177 187 203 211 204 182 157 143 142 149 146 132 146 147 149 145 156 160 170 177 183 176 173 172 172 173 178 176 174 172 176 174 179 179 179 180 183 176 169
249 213 80 96 65 54 74 11 64 321 32 275 155 180 205 281 221 224 212 217 251 244 230 235 239 193 134 121 115 110 98 90 78 109 114 78 91 147 150 147 154 171 167 158 154 150 151 146 153 153 144 143 154 147 152 171 174 165 183 195 203 200 192 170 161 158 154 159 160 159 150 154 161 158 153 152 161 179 185 181 177 177 178 175 177 179 176 179 178 180 183 184 182 179 179 174 181
140 175 91 54 59 71 333 71 69 26 250 265 165 193 156 290 269 186 150 207 214 235 246 306 82 83 86 121 144 155 150 149 150 125 102 90 66 92 110 138 153 146 150 145 146 151 150 150 157 163 159 154 159 155 155 171 178 187 196 201 205 200 186 163 157 157 151 165 171 167 169 168 166 165 153 163 180 182 181 183 182 180 178 173 176 173 177 183 188 186 182 178 184 182 180 173 158
131 123 126 111 8 25 25 343 47 127 260 317 161 173 188 199 297 12 104 206 201 96 342 148 140 127 150 172 174 155 155 153 150 137 140 119 103 97 114 136 148 155 149 150 155 156 159 160 162 166 166 157 155 154 161 170 176 192 198 205 208 202 175 173 171 171 173 176 175 171 166 159 171 160 166 164 183 191 183 187 187 177 175 170 181 181 175 181 180 173 186 183 182 190 180 161 158
54 127 111 114 237 66 307 82 259 200 238 265 335 221 285 239 231 22 329 260 290 233 185 40 107 158 183 206 178 164 159 152 156 163 162 163 171 165 170 162 157 163 170 166 169 170 171 171 172 174 180 162 161 160 171 175 181 192 196 204 210 201 179 177 179 179 176 177 176 172 171 181 167 173 183 183 197 193 189 185 185 183 179 181 182 181 181 176 172 177 180 192 195 185 176 160 159
183 164 159 123 193 193 239 229 211 253 266 287 327 13 248 272 296 232 245 239 219 215 209 169 164 182 186 191 178 176 187 177 177 171 174 183 183 188 188 176 172 170 172 173 172 173 176 178 179 181 184 168 155 162 171 178 188 191 194 203 210 204 192 184 188 176 177 182 178 181 184 185 184 192 184 196 188 187 197 198 190 194 186 176 181 185 182 180 180 183 182 188 185 167 150 149 148
200 192 160 174 162 173 217 175 210 219 221 255 293 85 237 102 246 308 70 28 333 316 312 221 276 2 80 162 183 195 192 199 181 175 180 183 185 180 188 189 181 174 173 175 174 178 176 180 179 180 181 181 161 166 170 181 188 193 192 197 207 198 189 187 192 176 172 177 180 183 188 187 195 196 195 192 172 185 192 194 193 190 177 170 168 161 161 166 177 175 171 158 136 136 131 133 130
217 205 221 246 222 133 214 181 133 277 12 319 226 211 229 198 284 274 270 306 310 322 323 308 294 266 150 182 213 214 211 197 188 182 188 195 186 179 181 185 183 179 177 176 176 178 182 187 184 185 184 184 175 169 175 178 185 189 194 192 200 190 182 178 184 176 170 181 181 185 190 192 199 192 184 168 176 180 187 191 188 186 168 160 163 157 159 160 159 152 136 132 130 131 129 122 120
212 131 215 203 65 143 21 3 43 97 16 254 180 296 272 308 275 249 248 248 249 251 255 242 256 274 231 238 257 249 224 202 191 182 197 196 180 182 182 180 178 179 181 184 183 183 186 184 185 187 189 187 186 178 174 173 178 184 196 198 194 194 187 187 187 187 179 180 184 188 190 195 185 179 174 168 165 173 177 180 176 172 165 160 151 154 151 145 141 139 139 136 134 132 125 126 122
105 193 219 75 49 93 147 214 58 184 221 260 153 243 278 40 284 41 190 225 241 229 231 233 239 244 254 254 258 259 252 199 180 194 210 189 184 181 181 183 179 181 184 183 188 183 188 188 189 189 190 193 192 180 175 175 180 186 190 197 199 195 194 192 187 185 175 175 182 178 181 184 193 184 169 169 162 165 170 174 173 170 160 155 154 147 141 136 131 128 132 131 137 132 119 112 118
123 179 326 137 255 263 240 105 239 244 231 272 246 237 255 225 253 271 321 183 230 222 226 231 242 245 240 251 257 263 233 148 182 205 200 187 185 184 178 181 183 182 185 184 183 182 184 193 195 197 202 201 194 183 177 177 179 185 188 192 194 191 189 190 186 180 174 181 179 177 180 179 162 157 159 162 163 166 169 168 160 159 157 154 149 146 141 137 138 134 135 133 139 131 126 123 129
10 14 344 236 111 187 161 193 212 136 243 235 269 263 257 228 241 248 237 226 211 221 219 222 221 226 223 235 246 231 178 191 198 206 201 194 186 178 176 178 181 184 184 183 182 181 189 190 191 202 209 209 208 198 181 178 178 178 181 181 190 186 183 183 183 179 181 187 183 180 175 165 167 159 161 157 160 165 165 161 162 160 155 145 141 142 142 139 138 141 141 138 145 132 129 131 131
217 51 256 256 155 298 108 305 185 181 205 218 258 275 256 252 204 231 235 233 230 217 216 212 209 215 217 231 222 186 192 198 209 208 197 186 178 173 174 179 181 180 180 179 183 187 186 184 192 194 201 207 213 214 195 187 172 176 175 183 185 181 184 180 181 182 183 186 183 181 180 172 141 155 148 154 159 162 157 156 156 162 161 156 150 148 146 141 137 140 142 140 141 138 132 134 130
185 185 203 194 170 179 209 258 182 201 206 224 227 257 281 261 151 261 263 261 15 108 130 139 184 205 123 112 127 179 198 221 207 207 174 167 167 176 170 160 164 171 187 189 191 180 186 192 193 193 198 208 211 213 204 197 186 173 175 180 181 179 178 178 182 178 182 182 177 175 170 151 170 165 160 161 163 159 156 159 162 167 169 157 150 146 147 144 145 144 145 146 145 141 137 138 135